Time,TemperatureF,DewpointF,PressureIn,WindDirection,WindDirectionDegrees,WindSpeedMPH,WindSpeedGustMPH,Humidity,HourlyPrecipIn,Conditions,Clouds,dailyrainin,SoftwareType,DateUTC
2013-06-15 00:00:00,60.0,56.7,29.96,SW,234,1.0,9.0,89,0.00,,,0.00,Wunderground v.1.15,2013-06-15 04:00:00,
2013-06-15 00:05:00,60.1,56.8,29.96,SW,232,1.0,9.0,89,0.00,,,0.00,Wunderground v.1.15,2013-06-15 04:05:00,
2013-06-15 00:10:00,60.0,56.7,29.96,SW,232,1.0,1.0,89,0.00,,,0.00,Wunderground v.1.15,2013-06-15 04:10:00,
2013-06-15 00:15:00,59.8,56.6,29.96,SW,234,0.0,9.0,89,0.00,,,0.00,Wunderground v.1.15,2013-06-15 04:15:00,
2013-06-15 00:20:00,59.7,56.8,29.97,WSW,241,0.0,9.0,90,0.00,,,0.00,Wunderground v.1.15,2013-06-15 04:20:00,
2013-06-15 00:25:00,59.6,56.7,29.97,WSW,241,0.0,9.0,90,0.00,,,0.00,Wunderground v.1.15,2013-06-15 04:25:00,
2013-06-15 00:30:00,59.4,56.5,29.97,WSW,241,0.0,9.0,90,0.00,,,0.00,Wunderground v.1.15,2013-06-15 04:30:00,
2013-06-15 00:35:00,59.4,56.5,29.97,WSW,241,0.0,9.0,90,0.00,,,0.00,Wunderground v.1.15,2013-06-15 04:35:00,
2013-06-15 00:40:00,59.3,56.7,29.97,WSW,241,0.0,9.0,91,0.00,,,0.00,Wunderground v.1.15,2013-06-15 04:40:00,
2013-06-15 00:45:00,59.3,56.7,29.98,WSW,240,0.0,9.0,91,0.00,,,0.00,Wunderground v.1.15,2013-06-15 04:45:00,
2013-06-15 00:50:00,59.3,56.7,29.98,WSW,248,1.0,9.0,91,0.00,,,0.00,Wunderground v.1.15,2013-06-15 04:50:00,
2013-06-15 00:55:00,59.3,56.7,29.98,SW,229,2.0,9.0,91,0.00,,,0.00,Wunderground v.1.15,2013-06-15 04:55:00,
2013-06-15 01:00:00,59.3,56.4,29.97,SSW,208,3.0,3.0,90,0.00,,,0.00,Wunderground v.1.15,2013-06-15 05:00:00,
2013-06-15 01:05:00,59.2,56.3,29.97,SW,227,3.0,9.0,90,0.00,,,0.00,Wunderground v.1.15,2013-06-15 05:05:00,
2013-06-15 01:10:00,59.2,56.3,29.97,SW,227,3.0,3.0,90,0.00,,,0.00,Wunderground v.1.15,2013-06-15 05:10:00,
2013-06-15 01:15:00,59.1,56.2,29.97,WSW,239,3.0,9.0,90,0.00,,,0.00,Wunderground v.1.15,2013-06-15 05:15:00,
2013-06-15 01:20:00,59.1,56.2,29.97,SW,215,1.0,9.0,90,0.00,,,0.00,Wunderground v.1.15,2013-06-15 05:20:00,
2013-06-15 01:25:00,59.0,56.1,29.97,SW,227,1.0,9.0,90,0.00,,,0.00,Wunderground v.1.15,2013-06-15 05:25:00,
2013-06-15 01:30:00,58.9,56.0,29.96,SSW,213,3.0,3.0,90,0.00,,,0.00,Wunderground v.1.15,2013-06-15 05:30:00,
2013-06-15 01:35:00,58.7,55.8,29.97,SW,236,3.0,9.0,90,0.00,,,0.00,Wunderground v.1.15,2013-06-15 05:35:00,
2013-06-15 01:45:00,58.5,55.6,29.97,WSW,242,2.0,9.0,90,0.00,,,0.00,Wunderground v.1.15,2013-06-15 05:45:00,
2013-06-15 01:50:00,58.5,55.6,29.97,SW,229,2.0,9.0,90,0.00,,,0.00,Wunderground v.1.15,2013-06-15 05:50:00,
2013-06-15 01:55:00,58.4,55.5,29.97,SW,229,1.0,9.0,90,0.00,,,0.00,Wunderground v.1.15,2013-06-15 05:55:00,
2013-06-15 02:00:00,58.3,55.4,29.97,SW,233,1.0,9.0,90,0.00,,,0.00,Wunderground v.1.15,2013-06-15 06:00:00,
2013-06-15 02:10:00,58.2,55.0,29.97,SSW,209,2.0,9.0,89,0.00,,,0.00,Wunderground v.1.15,2013-06-15 06:10:00,
2013-06-15 02:20:00,58.0,54.8,29.97,SW,223,3.0,9.0,89,0.00,,,0.00,Wunderground v.1.15,2013-06-15 06:20:00,
2013-06-15 02:25:00,58.1,54.6,29.97,SW,222,3.0,9.0,88,0.00,,,0.00,Wunderground v.1.15,2013-06-15 06:25:00,
2013-06-15 02:30:00,58.1,53.9,29.97,SW,214,3.0,3.0,86,0.00,,,0.00,Wunderground v.1.15,2013-06-15 06:30:00,
2013-06-15 02:35:00,58.1,53.9,29.97,SSW,205,2.0,4.0,86,0.00,,,0.00,Wunderground v.1.15,2013-06-15 06:35:00,
2013-06-15 02:40:00,58.1,53.6,29.97,SW,218,2.0,9.0,85,0.00,,,0.00,Wunderground v.1.15,2013-06-15 06:40:00,
2013-06-15 02:45:00,58.1,53.3,29.97,WSW,248,1.0,9.0,84,0.00,,,0.00,Wunderground v.1.15,2013-06-15 06:45:00,
2013-06-15 02:55:00,58.2,53.1,29.97,WSW,248,1.0,2.0,83,0.00,,,0.00,Wunderground v.1.15,2013-06-15 06:55:00,
2013-06-15 03:00:00,58.3,53.2,29.97,WNW,292,2.0,9.0,83,0.00,,,0.00,Wunderground v.1.15,2013-06-15 07:00:00,
2013-06-15 03:05:00,58.3,52.8,29.96,WSW,250,3.0,9.0,82,0.00,,,0.00,Wunderground v.1.15,2013-06-15 07:05:00,
2013-06-15 03:10:00,58.2,53.1,29.96,WSW,253,2.0,2.0,83,0.00,,,0.00,Wunderground v.1.15,2013-06-15 07:10:00,
2013-06-15 03:15:00,58.0,52.5,29.96,WSW,250,1.0,9.0,82,0.00,,,0.00,Wunderground v.1.15,2013-06-15 07:15:00,
2013-06-15 03:20:00,57.7,51.9,29.96,West,267,1.0,9.0,81,0.00,,,0.00,Wunderground v.1.15,2013-06-15 07:20:00,
2013-06-15 03:25:00,57.7,51.9,29.96,SW,236,1.0,9.0,81,0.00,,,0.00,Wunderground v.1.15,2013-06-15 07:25:00,
2013-06-15 03:35:00,58.0,51.5,29.96,WSW,254,3.0,9.0,79,0.00,,,0.00,Wunderground v.1.15,2013-06-15 07:35:00,
2013-06-15 03:40:00,57.9,51.4,29.96,WSW,245,3.0,9.0,79,0.00,,,0.00,Wunderground v.1.15,2013-06-15 07:40:00,
2013-06-15 03:45:00,57.6,51.1,29.96,SW,234,2.0,9.0,79,0.00,,,0.00,Wunderground v.1.15,2013-06-15 07:45:00,
2013-06-15 03:50:00,57.3,51.2,29.96,WSW,246,2.0,2.0,80,0.00,,,0.00,Wunderground v.1.15,2013-06-15 07:50:00,
2013-06-15 03:55:00,57.2,51.4,29.96,WSW,240,2.0,9.0,81,0.00,,,0.00,Wunderground v.1.15,2013-06-15 07:55:00,
2013-06-15 04:00:00,57.0,51.2,29.96,WSW,238,1.0,9.0,81,0.00,,,0.00,Wunderground v.1.15,2013-06-15 08:00:00,
2013-06-15 04:05:00,56.8,51.0,29.96,WSW,240,1.0,9.0,81,0.00,,,0.00,Wunderground v.1.15,2013-06-15 08:05:00,
2013-06-15 04:15:00,56.7,50.9,29.96,WSW,246,3.0,9.0,81,0.00,,,0.00,Wunderground v.1.15,2013-06-15 08:15:00,
2013-06-15 04:20:00,56.6,50.8,29.96,WSW,239,2.0,9.0,81,0.00,,,0.00,Wunderground v.1.15,2013-06-15 08:20:00,
2013-06-15 04:25:00,56.4,50.6,29.96,SW,223,2.0,9.0,81,0.00,,,0.00,Wunderground v.1.15,2013-06-15 08:25:00,
2013-06-15 04:30:00,56.2,50.8,29.97,SW,217,2.0,9.0,82,0.00,,,0.00,Wunderground v.1.15,2013-06-15 08:30:00,
2013-06-15 04:35:00,56.1,50.7,29.97,SW,217,2.0,9.0,82,0.00,,,0.00,Wunderground v.1.15,2013-06-15 08:35:00,
2013-06-15 04:40:00,56.0,50.3,29.96,SW,217,2.0,2.0,81,0.00,,,0.00,Wunderground v.1.15,2013-06-15 08:40:00,
2013-06-15 04:50:00,56.1,50.3,29.95,SSW,211,1.0,9.0,81,0.00,,,0.00,Wunderground v.1.15,2013-06-15 08:50:00,
2013-06-15 05:00:00,56.1,50.3,29.96,WSW,252,1.0,1.0,81,0.00,,,0.00,Wunderground v.1.15,2013-06-15 09:00:00,
2013-06-15 05:05:00,56.0,50.3,29.96,WSW,252,0.0,2.0,81,0.00,,,0.00,Wunderground v.1.15,2013-06-15 09:05:00,
2013-06-15 05:10:00,55.7,50.3,29.96,WSW,252,1.0,9.0,82,0.00,,,0.00,Wunderground v.1.15,2013-06-15 09:10:00,
2013-06-15 05:15:00,55.1,50.4,29.96,WSW,252,1.0,9.0,84,0.00,,,0.00,Wunderground v.1.15,2013-06-15 09:15:00,
2013-06-15 05:20:00,54.6,50.2,29.97,WSW,252,1.0,1.0,85,0.00,,,0.00,Wunderground v.1.15,2013-06-15 09:20:00,
2013-06-15 05:25:00,54.2,50.1,29.97,WSW,252,1.0,9.0,86,0.00,,,0.00,Wunderground v.1.15,2013-06-15 09:25:00,
2013-06-15 05:35:00,54.3,50.2,29.97,SW,232,1.0,9.0,86,0.00,,,0.00,Wunderground v.1.15,2013-06-15 09:35:00,
2013-06-15 05:40:00,54.4,50.3,29.97,SW,228,1.0,1.0,86,0.00,,,0.00,Wunderground v.1.15,2013-06-15 09:40:00,
2013-06-15 05:45:00,54.6,50.5,29.97,SW,228,1.0,9.0,86,0.00,,,0.00,Wunderground v.1.15,2013-06-15 09:45:00,
2013-06-15 05:50:00,54.5,50.4,29.98,SW,228,0.0,9.0,86,0.00,,,0.00,Wunderground v.1.15,2013-06-15 09:50:00,
2013-06-15 05:55:00,53.7,50.2,29.98,SW,228,0.0,9.0,88,0.00,,,0.00,Wunderground v.1.15,2013-06-15 09:55:00,
2013-06-15 06:00:00,53.4,50.2,29.98,SW,228,1.0,1.0,89,0.00,,,0.00,Wunderground v.1.15,2013-06-15 10:00:00,
2013-06-15 06:05:00,53.5,50.3,29.98,SW,228,1.0,2.0,89,0.00,,,0.00,Wunderground v.1.15,2013-06-15 10:05:00,
2013-06-15 06:15:00,54.3,50.5,29.99,SW,232,2.0,9.0,87,0.00,,,0.00,Wunderground v.1.15,2013-06-15 10:15:00,
2013-06-15 06:20:00,54.5,50.7,30.00,SW,233,1.0,1.0,87,0.00,,,0.00,Wunderground v.1.15,2013-06-15 10:20:00,
2013-06-15 06:25:00,54.6,50.8,30.00,WSW,243,1.0,9.0,87,0.00,,,0.00,Wunderground v.1.15,2013-06-15 10:25:00,
2013-06-15 06:30:00,54.7,50.9,30.00,SW,225,1.0,1.0,87,0.00,,,0.00,Wunderground v.1.15,2013-06-15 10:30:00,
2013-06-15 06:35:00,54.9,50.8,30.00,WSW,257,1.0,3.0,86,0.00,,,0.00,Wunderground v.1.15,2013-06-15 10:35:00,
2013-06-15 06:40:00,55.2,50.8,30.00,SW,236,1.0,9.0,85,0.00,,,0.00,Wunderground v.1.15,2013-06-15 10:40:00,
2013-06-15 06:50:00,56.0,50.6,30.01,SW,225,3.0,9.0,82,0.00,,,0.00,Wunderground v.1.15,2013-06-15 10:50:00,
2013-06-15 06:55:00,56.2,50.8,30.01,SW,227,3.0,9.0,82,0.00,,,0.00,Wunderground v.1.15,2013-06-15 10:55:00,
2013-06-15 07:00:00,56.3,50.5,30.00,SW,221,2.0,9.0,81,0.00,,,0.00,Wunderground v.1.15,2013-06-15 11:00:00,
2013-06-15 07:05:00,56.5,50.4,30.01,WSW,239,3.0,9.0,80,0.00,,,0.00,Wunderground v.1.15,2013-06-15 11:05:00,
2013-06-15 07:10:00,56.7,50.9,30.01,WSW,238,2.0,9.0,81,0.00,,,0.00,Wunderground v.1.15,2013-06-15 11:10:00,
2013-06-15 07:15:00,56.9,50.8,30.01,SW,223,1.0,9.0,80,0.00,,,0.00,Wunderground v.1.15,2013-06-15 11:15:00,
2013-06-15 07:20:00,57.2,51.1,30.00,SW,222,1.0,1.0,80,0.00,,,0.00,Wunderground v.1.15,2013-06-15 11:20:00,
2013-06-15 07:30:00,57.8,51.3,30.01,SSW,202,1.0,9.0,79,0.00,,,0.00,Wunderground v.1.15,2013-06-15 11:30:00,
2013-06-15 07:35:00,58.2,51.0,30.00,South,190,1.0,9.0,77,0.00,,,0.00,Wunderground v.1.15,2013-06-15 11:35:00,
2013-06-15 07:40:00,58.6,51.1,30.01,SW,227,2.0,9.0,76,0.00,,,0.00,Wunderground v.1.15,2013-06-15 11:40:00,
2013-06-15 07:45:00,58.7,51.5,30.00,SW,232,3.0,9.0,77,0.00,,,0.00,Wunderground v.1.15,2013-06-15 11:45:00,
2013-06-15 07:50:00,58.8,51.2,30.00,SW,221,3.0,9.0,76,0.00,,,0.00,Wunderground v.1.15,2013-06-15 11:50:00,
2013-06-15 07:55:00,58.9,51.7,30.00,WSW,251,2.0,9.0,77,0.00,,,0.00,Wunderground v.1.15,2013-06-15 11:55:00,
2013-06-15 08:05:00,59.4,51.5,30.01,WSW,242,3.0,9.0,75,0.00,,,0.00,Wunderground v.1.15,2013-06-15 12:05:00,
2013-06-15 08:10:00,59.6,52.0,30.00,West,274,3.0,3.0,76,0.00,,,0.00,Wunderground v.1.15,2013-06-15 12:10:00,
2013-06-15 08:15:00,59.9,51.6,30.00,WSW,245,3.0,5.0,74,0.00,,,0.00,Wunderground v.1.15,2013-06-15 12:15:00,
2013-06-15 08:20:00,60.0,52.1,30.01,SW,225,4.0,4.0,75,0.00,,,0.00,Wunderground v.1.15,2013-06-15 12:20:00,
2013-06-15 08:25:00,60.2,51.5,30.01,WSW,240,3.0,6.0,73,0.00,,,0.00,Wunderground v.1.15,2013-06-15 12:25:00,
2013-06-15 08:30:00,60.3,51.2,30.01,WSW,247,4.0,4.0,72,0.00,,,0.00,Wunderground v.1.15,2013-06-15 12:30:00,
2013-06-15 08:40:00,60.6,51.9,30.00,SW,220,4.0,4.0,73,0.00,,,0.00,Wunderground v.1.15,2013-06-15 12:40:00,
2013-06-15 08:45:00,60.9,52.2,30.01,WSW,238,3.0,9.0,73,0.00,,,0.00,Wunderground v.1.15,2013-06-15 12:45:00,
2013-06-15 08:50:00,61.2,52.1,30.01,WSW,244,3.0,9.0,72,0.00,,,0.00,Wunderground v.1.15,2013-06-15 12:50:00,
2013-06-15 08:55:00,61.4,52.7,30.02,WNW,289,4.0,9.0,73,0.00,,,0.00,Wunderground v.1.15,2013-06-15 12:55:00,
2013-06-15 09:00:00,61.6,53.2,30.01,SW,236,4.0,4.0,74,0.00,,,0.00,Wunderground v.1.15,2013-06-15 13:00:00,
2013-06-15 09:05:00,61.6,52.9,30.00,WSW,238,4.0,5.0,73,0.00,,,0.00,Wunderground v.1.15,2013-06-15 13:05:00,
2013-06-15 09:15:00,62.0,53.6,30.01,WSW,248,4.0,9.0,74,0.00,,,0.00,Wunderground v.1.15,2013-06-15 13:15:00,
2013-06-15 09:20:00,62.3,53.5,30.01,SSW,208,4.0,4.0,73,0.00,,,0.00,Wunderground v.1.15,2013-06-15 13:20:00,
2013-06-15 09:25:00,62.7,53.9,30.01,SW,217,4.0,9.0,73,0.00,,,0.00,Wunderground v.1.15,2013-06-15 13:25:00,
2013-06-15 09:30:00,63.1,52.8,30.01,SW,236,4.0,9.0,69,0.00,,,0.00,Wunderground v.1.15,2013-06-15 13:30:00,
2013-06-15 09:35:00,63.6,53.2,30.01,West,279,4.0,9.0,69,0.00,,,0.00,Wunderground v.1.15,2013-06-15 13:35:00,
2013-06-15 09:40:00,63.8,54.2,30.01,West,272,5.0,9.0,71,0.00,,,0.00,Wunderground v.1.15,2013-06-15 13:40:00,
2013-06-15 09:45:00,64.1,54.9,30.01,WNW,289,5.0,9.0,72,0.00,,,0.00,Wunderground v.1.15,2013-06-15 13:45:00,
2013-06-15 09:55:00,64.4,54.4,30.02,West,276,7.0,9.0,70,0.00,,,0.00,Wunderground v.1.15,2013-06-15 13:55:00,
2013-06-15 10:00:00,64.7,53.1,30.02,WNW,293,6.0,6.0,66,0.00,,,0.00,Wunderground v.1.15,2013-06-15 14:00:00,
2013-06-15 10:05:00,64.8,53.6,30.02,WSW,241,6.0,9.0,67,0.00,,,0.00,Wunderground v.1.15,2013-06-15 14:05:00,
2013-06-15 10:10:00,64.9,54.5,30.02,West,261,6.0,6.0,69,0.00,,,0.00,Wunderground v.1.15,2013-06-15 14:10:00,
2013-06-15 10:15:00,65.1,53.5,30.02,WSW,254,6.0,9.0,66,0.00,,,0.00,Wunderground v.1.15,2013-06-15 14:15:00,
2013-06-15 10:20:00,65.5,54.2,30.01,West,271,6.0,6.0,67,0.00,,,0.00,Wunderground v.1.15,2013-06-15 14:20:00,
2013-06-15 10:30:00,65.7,53.2,30.01,West,261,6.0,6.0,64,0.00,,,0.00,Wunderground v.1.15,2013-06-15 14:30:00,
2013-06-15 10:35:00,65.7,51.9,30.01,WNW,293,7.0,9.0,61,0.00,,,0.00,Wunderground v.1.15,2013-06-15 14:35:00,
2013-06-15 10:40:00,65.8,52.4,30.01,West,265,8.0,8.0,62,0.00,,,0.00,Wunderground v.1.15,2013-06-15 14:40:00,
2013-06-15 10:45:00,66.0,51.7,30.02,West,277,8.0,9.0,60,0.00,,,0.00,Wunderground v.1.15,2013-06-15 14:45:00,
2013-06-15 10:50:00,65.8,52.9,30.02,West,280,9.0,9.0,63,0.00,,,0.00,Wunderground v.1.15,2013-06-15 14:50:00,
2013-06-15 10:55:00,66.1,53.1,30.02,WNW,282,8.0,10.0,63,0.00,,,0.00,Wunderground v.1.15,2013-06-15 14:55:00,
2013-06-15 11:00:00,65.8,51.5,30.02,West,262,9.0,9.0,60,0.00,,,0.00,Wunderground v.1.15,2013-06-15 15:00:00,
2013-06-15 11:10:00,66.2,52.3,30.02,WNW,300,9.0,9.0,61,0.00,,,0.00,Wunderground v.1.15,2013-06-15 15:10:00,
2013-06-15 11:15:00,66.1,52.7,30.02,West,273,9.0,9.0,62,0.00,,,0.00,Wunderground v.1.15,2013-06-15 15:15:00,
2013-06-15 11:20:00,66.5,51.7,30.02,WSW,257,10.0,10.0,59,0.00,,,0.00,Wunderground v.1.15,2013-06-15 15:20:00,
2013-06-15 11:25:00,66.7,51.5,30.02,West,270,10.0,12.0,58,0.00,,,0.00,Wunderground v.1.15,2013-06-15 15:25:00,
2013-06-15 11:30:00,66.7,51.0,30.02,WSW,252,10.0,10.0,57,0.00,,,0.00,Wunderground v.1.15,2013-06-15 15:30:00,
2013-06-15 11:35:00,66.5,50.8,30.02,West,280,9.0,10.0,57,0.00,,,0.00,Wunderground v.1.15,2013-06-15 15:35:00,
2013-06-15 11:45:00,67.0,50.3,30.02,West,279,9.0,10.0,55,0.00,,,0.00,Wunderground v.1.15,2013-06-15 15:45:00,
2013-06-15 11:55:00,67.4,49.2,30.01,West,270,10.0,10.0,52,0.00,,,0.00,Wunderground v.1.15,2013-06-15 15:55:00,
2013-06-15 12:00:00,67.6,48.8,30.01,West,270,10.0,12.0,51,0.00,,,0.00,Wunderground v.1.15,2013-06-15 16:00:00,
2013-06-15 12:05:00,67.5,48.7,30.01,WNW,294,10.0,13.0,51,0.00,,,0.00,Wunderground v.1.15,2013-06-15 16:05:00,
2013-06-15 12:10:00,67.6,47.2,30.01,West,267,10.0,10.0,48,0.00,,,0.00,Wunderground v.1.15,2013-06-15 16:10:00,
2013-06-15 12:15:00,67.7,48.4,30.01,NW,308,9.0,10.0,50,0.00,,,0.00,Wunderground v.1.15,2013-06-15 16:15:00,
2013-06-15 12:20:00,67.9,48.6,30.01,WNW,290,7.0,7.0,50,0.00,,,0.00,Wunderground v.1.15,2013-06-15 16:20:00,
2013-06-15 12:30:00,67.9,46.9,30.01,West,275,8.0,9.0,47,0.00,,,0.00,Wunderground v.1.15,2013-06-15 16:30:00,
2013-06-15 12:35:00,68.9,47.8,30.00,West,263,8.0,9.0,47,0.00,,,0.00,Wunderground v.1.15,2013-06-15 16:35:00,
2013-06-15 12:40:00,68.7,46.5,30.00,WNW,302,7.0,9.0,45,0.00,,,0.00,Wunderground v.1.15,2013-06-15 16:40:00,
2013-06-15 12:45:00,68.6,45.2,30.00,NW,316,7.0,9.0,43,0.00,,,0.00,Wunderground v.1.15,2013-06-15 16:45:00,
2013-06-15 12:50:00,68.6,47.0,30.00,West,271,6.0,6.0,46,0.00,,,0.00,Wunderground v.1.15,2013-06-15 16:50:00,
2013-06-15 12:55:00,69.0,45.6,30.00,WSW,242,7.0,12.0,43,0.00,,,0.00,Wunderground v.1.15,2013-06-15 16:55:00,
2013-06-15 13:00:00,68.7,43.4,30.00,WNW,291,9.0,14.0,40,0.00,,,0.00,Wunderground v.1.15,2013-06-15 17:00:00,
2013-06-15 13:10:00,68.6,45.8,30.00,WNW,300,9.0,10.0,44,0.00,,,0.00,Wunderground v.1.15,2013-06-15 17:10:00,
2013-06-15 13:15:00,68.4,47.4,30.00,West,275,8.0,10.0,47,0.00,,,0.00,Wunderground v.1.15,2013-06-15 17:15:00,
2013-06-15 13:20:00,68.6,46.4,29.99,West,278,6.0,9.0,45,0.00,,,0.00,Wunderground v.1.15,2013-06-15 17:20:00,
2013-06-15 13:25:00,68.9,48.4,29.99,WNW,294,9.0,9.0,48,0.00,,,0.00,Wunderground v.1.15,2013-06-15 17:25:00,
2013-06-15 13:30:00,68.9,48.4,29.99,West,269,10.0,10.0,48,0.00,,,0.00,Wunderground v.1.15,2013-06-15 17:30:00,
2013-06-15 13:35:00,69.0,45.6,29.99,West,268,9.0,10.0,43,0.00,,,0.00,Wunderground v.1.15,2013-06-15 17:35:00,
2013-06-15 13:40:00,69.2,46.9,29.99,West,277,8.0,11.0,45,0.00,,,0.00,Wunderground v.1.15,2013-06-15 17:40:00,
2013-06-15 13:50:00,69.5,47.2,29.99,WNW,283,9.0,9.0,45,0.00,,,0.00,Wunderground v.1.15,2013-06-15 17:50:00,
2013-06-15 13:55:00,69.3,48.2,29.99,North,355,9.0,9.0,47,0.00,,,0.00,Wunderground v.1.15,2013-06-15 17:55:00,
2013-06-15 14:00:00,69.0,46.8,29.98,WNW,300,8.0,8.0,45,0.00,,,0.00,Wunderground v.1.15,2013-06-15 18:00:00,
2013-06-15 14:05:00,69.1,48.0,29.98,WNW,287,8.0,9.0,47,0.00,,,0.00,Wunderground v.1.15,2013-06-15 18:05:00,
2013-06-15 14:10:00,69.9,48.7,29.99,West,269,8.0,11.0,47,0.00,,,0.00,Wunderground v.1.15,2013-06-15 18:10:00,
2013-06-15 14:15:00,69.4,48.9,29.99,West,280,9.0,11.0,48,0.00,,,0.00,Wunderground v.1.15,2013-06-15 18:15:00,
2013-06-15 14:25:00,69.5,47.8,29.98,WNW,301,10.0,13.0,46,0.00,,,0.00,Wunderground v.1.15,2013-06-15 18:25:00,
2013-06-15 14:30:00,69.6,51.2,29.98,WNW,299,9.0,9.0,52,0.00,,,0.00,Wunderground v.1.15,2013-06-15 18:30:00,
2013-06-15 14:35:00,70.1,50.6,29.98,WNW,298,6.0,9.0,50,0.00,,,0.00,Wunderground v.1.15,2013-06-15 18:35:00,
2013-06-15 14:40:00,69.7,49.7,29.98,West,269,7.0,9.0,49,0.00,,,0.00,Wunderground v.1.15,2013-06-15 18:40:00,
2013-06-15 14:45:00,70.0,50.5,29.98,West,263,8.0,10.0,50,0.00,,,0.00,Wunderground v.1.15,2013-06-15 18:45:00,
2013-06-15 14:50:00,69.6,48.5,29.98,West,274,10.0,11.0,47,0.00,,,0.00,Wunderground v.1.15,2013-06-15 18:50:00,
2013-06-15 14:55:00,69.8,48.1,29.98,West,267,10.0,11.0,46,0.00,,,0.00,Wunderground v.1.15,2013-06-15 18:55:00,
2013-06-15 15:05:00,69.8,51.4,29.98,WNW,293,10.0,12.0,52,0.00,,,0.00,Wunderground v.1.15,2013-06-15 19:05:00,
2013-06-15 15:10:00,69.6,48.5,29.98,NW,317,8.0,8.0,47,0.00,,,0.00,Wunderground v.1.15,2013-06-15 19:10:00,
2013-06-15 15:15:00,69.6,50.7,29.98,WNW,288,8.0,9.0,51,0.00,,,0.00,Wunderground v.1.15,2013-06-15 19:15:00,
2013-06-15 15:20:00,69.7,50.8,29.98,West,281,6.0,9.0,51,0.00,,,0.00,Wunderground v.1.15,2013-06-15 19:20:00,
2013-06-15 15:25:00,69.9,50.4,29.97,WNW,283,7.0,9.0,50,0.00,,,0.00,Wunderground v.1.15,2013-06-15 19:25:00,
2013-06-15 15:30:00,69.1,50.2,29.98,West,280,8.0,8.0,51,0.00,,,0.00,Wunderground v.1.15,2013-06-15 19:30:00,
2013-06-15 15:35:00,69.4,49.4,29.98,WNW,284,7.0,10.0,49,0.00,,,0.00,Wunderground v.1.15,2013-06-15 19:35:00,
2013-06-15 15:45:00,69.0,49.0,29.98,West,273,8.0,9.0,49,0.00,,,0.00,Wunderground v.1.15,2013-06-15 19:45:00,
2013-06-15 15:50:00,69.0,49.0,29.98,WNW,293,7.0,14.0,49,0.00,,,0.00,Wunderground v.1.15,2013-06-15 19:50:00,
2013-06-15 15:55:00,68.6,49.2,29.98,West,279,8.0,14.0,50,0.00,,,0.00,Wunderground v.1.15,2013-06-15 19:55:00,
2013-06-15 16:00:00,68.6,48.7,29.97,SW,233,7.0,7.0,49,0.00,,,0.00,Wunderground v.1.15,2013-06-15 20:00:00,
2013-06-15 16:05:00,68.8,48.3,29.98,West,267,7.0,9.0,48,0.00,,,0.00,Wunderground v.1.15,2013-06-15 20:05:00,
2013-06-15 16:10:00,69.0,47.4,29.97,West,269,8.0,10.0,46,0.00,,,0.00,Wunderground v.1.15,2013-06-15 20:10:00,
2013-06-15 16:20:00,69.0,47.4,29.97,West,273,8.0,8.0,46,0.00,,,0.00,Wunderground v.1.15,2013-06-15 20:20:00,
2013-06-15 16:25:00,69.4,48.3,29.97,West,265,8.0,9.0,47,0.00,,,0.00,Wunderground v.1.15,2013-06-15 20:25:00,
2013-06-15 16:30:00,69.3,47.0,29.97,WNW,295,9.0,9.0,45,0.00,,,0.00,Wunderground v.1.15,2013-06-15 20:30:00,
2013-06-15 16:35:00,69.1,46.9,29.97,West,274,8.0,9.0,45,0.00,,,0.00,Wunderground v.1.15,2013-06-15 20:35:00,
2013-06-15 16:40:00,69.2,48.1,29.96,West,277,7.0,7.0,47,0.00,,,0.00,Wunderground v.1.15,2013-06-15 20:40:00,
2013-06-15 16:45:00,69.5,50.6,29.96,West,279,6.0,9.0,51,0.00,,,0.00,Wunderground v.1.15,2013-06-15 20:45:00,
2013-06-15 16:50:00,69.6,51.2,29.96,West,275,5.0,9.0,52,0.00,,,0.00,Wunderground v.1.15,2013-06-15 20:50:00,
2013-06-15 17:00:00,69.2,51.8,29.96,West,273,6.0,9.0,54,0.00,,,0.00,Wunderground v.1.15,2013-06-15 21:00:00,
2013-06-15 17:05:00,68.8,52.5,29.96,WNW,289,6.0,9.0,56,0.00,,,0.00,Wunderground v.1.15,2013-06-15 21:05:00,
2013-06-15 17:10:00,69.0,53.1,29.96,WSW,249,5.0,5.0,57,0.00,,,0.00,Wunderground v.1.15,2013-06-15 21:10:00,
2013-06-15 17:15:00,68.8,52.5,29.96,West,274,6.0,7.0,56,0.00,,,0.00,Wunderground v.1.15,2013-06-15 21:15:00,
2013-06-15 17:20:00,68.6,52.3,29.96,West,277,6.0,9.0,56,0.00,,,0.00,Wunderground v.1.15,2013-06-15 21:20:00,
2013-06-15 17:30:00,68.5,52.7,29.95,WSW,244,5.0,9.0,57,0.00,,,0.00,Wunderground v.1.15,2013-06-15 21:30:00,
2013-06-15 17:35:00,68.6,52.8,29.95,West,273,4.0,9.0,57,0.00,,,0.00,Wunderground v.1.15,2013-06-15 21:35:00,
2013-06-15 17:40:00,69.0,53.6,29.95,West,266,5.0,9.0,58,0.00,,,0.00,Wunderground v.1.15,2013-06-15 21:40:00,
2013-06-15 17:45:00,68.8,53.4,29.95,West,281,7.0,9.0,58,0.00,,,0.00,Wunderground v.1.15,2013-06-15 21:45:00,
2013-06-15 17:50:00,68.5,53.6,29.95,WSW,251,6.0,6.0,59,0.00,,,0.00,Wunderground v.1.15,2013-06-15 21:50:00,
2013-06-15 17:55:00,68.4,53.5,29.95,West,279,4.0,9.0,59,0.00,,,0.00,Wunderground v.1.15,2013-06-15 21:55:00,
2013-06-15 18:00:00,68.5,53.6,29.95,WSW,256,4.0,9.0,59,0.00,,,0.00,Wunderground v.1.15,2013-06-15 22:00:00,
2013-06-15 18:10:00,68.8,54.8,29.95,WNW,285,3.0,9.0,61,0.00,,,0.00,Wunderground v.1.15,2013-06-15 22:10:00,
2013-06-15 18:15:00,69.1,55.5,29.95,WNW,283,3.0,9.0,62,0.00,,,0.00,Wunderground v.1.15,2013-06-15 22:15:00,
2013-06-15 18:20:00,69.2,56.1,29.95,WSW,248,4.0,4.0,63,0.00,,,0.00,Wunderground v.1.15,2013-06-15 22:20:00,
2013-06-15 18:25:00,69.5,56.3,29.95,West,275,3.0,9.0,63,0.00,,,0.00,Wunderground v.1.15,2013-06-15 22:25:00,
2013-06-15 18:30:00,69.6,56.0,29.95,WSW,254,4.0,9.0,62,0.00,,,0.00,Wunderground v.1.15,2013-06-15 22:30:00,
2013-06-15 18:35:00,69.4,56.3,29.95,West,270,5.0,9.0,63,0.00,,,0.00,Wunderground v.1.15,2013-06-15 22:35:00,
2013-06-15 18:40:00,69.0,55.9,29.95,West,259,5.0,5.0,63,0.00,,,0.00,Wunderground v.1.15,2013-06-15 22:40:00,
2013-06-15 18:45:00,69.0,56.3,29.95,West,268,4.0,9.0,64,0.00,,,0.00,Wunderground v.1.15,2013-06-15 22:45:00,
2013-06-15 18:55:00,68.9,55.3,29.95,WSW,256,4.0,9.0,62,0.00,,,0.00,Wunderground v.1.15,2013-06-15 22:55:00,
2013-06-15 19:00:00,68.6,55.1,29.95,West,266,5.0,9.0,62,0.00,,,0.00,Wunderground v.1.15,2013-06-15 23:00:00,
2013-06-15 19:05:00,68.6,55.5,29.95,SW,231,4.0,9.0,63,0.00,,,0.00,Wunderground v.1.15,2013-06-15 23:05:00,
2013-06-15 19:10:00,68.6,55.5,29.94,SW,227,3.0,3.0,63,0.00,,,0.00,Wunderground v.1.15,2013-06-15 23:10:00,
2013-06-15 19:15:00,68.7,55.6,29.94,SW,236,3.0,4.0,63,0.00,,,0.00,Wunderground v.1.15,2013-06-15 23:15:00,
2013-06-15 19:20:00,68.6,55.5,29.94,SW,231,3.0,9.0,63,0.00,,,0.00,Wunderground v.1.15,2013-06-15 23:20:00,
2013-06-15 19:25:00,68.6,55.9,29.94,WSW,244,3.0,9.0,64,0.00,,,0.00,Wunderground v.1.15,2013-06-15 23:25:00,
2013-06-15 19:35:00,68.1,55.0,29.94,SSW,200,3.0,6.0,63,0.00,,,0.00,Wunderground v.1.15,2013-06-15 23:35:00,
2013-06-15 19:40:00,67.7,55.5,29.94,WSW,254,3.0,9.0,65,0.00,,,0.00,Wunderground v.1.15,2013-06-15 23:40:00,
2013-06-15 19:45:00,67.5,55.3,29.94,WSW,257,3.0,9.0,65,0.00,,,0.00,Wunderground v.1.15,2013-06-15 23:45:00,
2013-06-15 19:50:00,67.3,55.1,29.94,WSW,253,2.0,9.0,65,0.00,,,0.00,Wunderground v.1.15,2013-06-15 23:50:00,
2013-06-15 19:55:00,67.2,55.5,29.94,WSW,240,2.0,9.0,66,0.00,,,0.00,Wunderground v.1.15,2013-06-15 23:55:00,
2013-06-15 20:00:00,67.1,55.4,29.94,WSW,252,2.0,2.0,66,0.00,,,0.00,Wunderground v.1.15,2013-06-16 00:00:00,
2013-06-15 20:10:00,67.0,54.8,29.94,SW,236,4.0,4.0,65,0.00,,,0.00,Wunderground v.1.15,2013-06-16 00:10:00,
2013-06-15 20:15:00,66.8,54.7,29.95,WSW,240,4.0,9.0,65,0.00,,,0.00,Wunderground v.1.15,2013-06-16 00:15:00,
2013-06-15 20:20:00,66.6,54.9,29.95,WSW,243,2.0,9.0,66,0.00,,,0.00,Wunderground v.1.15,2013-06-16 00:20:00,
2013-06-15 20:25:00,66.4,55.1,29.94,SW,232,2.0,9.0,67,0.00,,,0.00,Wunderground v.1.15,2013-06-16 00:25:00,
2013-06-15 20:30:00,66.2,54.9,29.95,SW,233,3.0,3.0,67,0.00,,,0.00,Wunderground v.1.15,2013-06-16 00:30:00,
2013-06-15 20:35:00,65.9,54.6,29.95,SSW,213,2.0,4.0,67,0.00,,,0.00,Wunderground v.1.15,2013-06-16 00:35:00,
2013-06-15 20:40:00,65.7,54.4,29.95,WSW,237,3.0,9.0,67,0.00,,,0.00,Wunderground v.1.15,2013-06-16 00:40:00,
2013-06-15 20:50:00,65.5,54.2,29.95,SW,231,4.0,9.0,67,0.00,,,0.00,Wunderground v.1.15,2013-06-16 00:50:00,
2013-06-15 20:55:00,65.3,54.1,29.94,SW,218,3.0,9.0,67,0.00,,,0.00,Wunderground v.1.15,2013-06-16 00:55:00,
2013-06-15 21:05:00,65.0,53.8,29.94,SW,215,4.0,9.0,67,0.00,,,0.00,Wunderground v.1.15,2013-06-16 01:05:00,
2013-06-15 21:10:00,64.9,53.7,29.94,SW,214,4.0,9.0,67,0.00,,,0.00,Wunderground v.1.15,2013-06-16 01:10:00,
2013-06-15 21:15:00,64.7,53.5,29.94,SW,231,4.0,9.0,67,0.00,,,0.00,Wunderground v.1.15,2013-06-16 01:15:00,
2013-06-15 21:25:00,64.6,53.4,29.94,WSW,238,4.0,9.0,67,0.00,,,0.00,Wunderground v.1.15,2013-06-16 01:25:00,
2013-06-15 21:30:00,64.4,53.2,29.94,SW,228,3.0,9.0,67,0.00,,,0.00,Wunderground v.1.15,2013-06-16 01:30:00,
2013-06-15 21:35:00,64.2,53.4,29.94,SW,217,4.0,9.0,68,0.00,,,0.00,Wunderground v.1.15,2013-06-16 01:35:00,
2013-06-15 21:40:00,64.0,53.2,29.94,SW,236,3.0,3.0,68,0.00,,,0.00,Wunderground v.1.15,2013-06-16 01:40:00,
2013-06-15 21:45:00,63.8,53.0,29.95,SW,224,3.0,4.0,68,0.00,,,0.00,Wunderground v.1.15,2013-06-16 01:45:00,
2013-06-15 21:50:00,63.8,53.0,29.95,SW,223,4.0,9.0,68,0.00,,,0.00,Wunderground v.1.15,2013-06-16 01:50:00,
2013-06-15 21:55:00,63.9,53.1,29.95,WSW,242,3.0,9.0,68,0.00,,,0.00,Wunderground v.1.15,2013-06-16 01:55:00,
2013-06-15 22:05:00,64.0,52.4,29.94,SSW,213,4.0,5.0,66,0.00,,,0.00,Wunderground v.1.15,2013-06-16 02:05:00,
2013-06-15 22:15:00,64.3,51.9,29.94,SSW,213,5.0,9.0,64,0.00,,,0.00,Wunderground v.1.15,2013-06-16 02:15:00,
2013-06-15 22:20:00,64.3,51.9,29.94,SW,222,5.0,9.0,64,0.00,,,0.00,Wunderground v.1.15,2013-06-16 02:20:00,
2013-06-15 22:25:00,64.4,52.0,29.94,SW,232,5.0,9.0,64,0.00,,,0.00,Wunderground v.1.15,2013-06-16 02:25:00,
2013-06-15 22:30:00,64.3,52.3,29.93,SSW,212,4.0,9.0,65,0.00,,,0.00,Wunderground v.1.15,2013-06-16 02:30:00,
2013-06-15 22:35:00,64.2,52.2,29.93,SW,225,4.0,9.0,65,0.00,,,0.00,Wunderground v.1.15,2013-06-16 02:35:00,
2013-06-15 22:45:00,63.9,53.1,29.93,West,259,2.0,9.0,68,0.00,,,0.00,Wunderground v.1.15,2013-06-16 02:45:00,
2013-06-15 22:50:00,63.6,52.4,29.93,WSW,247,3.0,3.0,67,0.00,,,0.00,Wunderground v.1.15,2013-06-16 02:50:00,
2013-06-15 22:55:00,63.5,52.7,29.92,WSW,240,2.0,9.0,68,0.00,,,0.00,Wunderground v.1.15,2013-06-16 02:55:00,
2013-06-15 23:00:00,63.6,52.0,29.92,WSW,238,2.0,9.0,66,0.00,,,0.00,Wunderground v.1.15,2013-06-16 03:00:00,
2013-06-15 23:05:00,63.9,52.7,29.92,WSW,255,4.0,9.0,67,0.00,,,0.00,Wunderground v.1.15,2013-06-16 03:05:00,
2013-06-15 23:10:00,64.1,52.5,29.92,SW,233,4.0,4.0,66,0.00,,,0.00,Wunderground v.1.15,2013-06-16 03:10:00,
2013-06-15 23:20:00,64.4,52.8,29.92,WSW,238,4.0,4.0,66,0.00,,,0.00,Wunderground v.1.15,2013-06-16 03:20:00,
2013-06-15 23:30:00,64.0,53.2,29.92,WSW,250,2.0,2.0,68,0.00,,,0.00,Wunderground v.1.15,2013-06-16 03:30:00,
2013-06-15 23:35:00,63.6,53.2,29.92,SW,219,2.0,4.0,69,0.00,,,0.00,Wunderground v.1.15,2013-06-16 03:35:00,
2013-06-15 23:40:00,63.2,53.3,29.92,WSW,254,2.0,9.0,70,0.00,,,0.00,Wunderground v.1.15,2013-06-16 03:40:00,
2013-06-15 23:45:00,62.7,53.2,29.93,WSW,247,2.0,9.0,71,0.00,,,0.00,Wunderground v.1.15,2013-06-16 03:45:00,
2013-06-15 23:50:00,62.5,53.0,29.92,SW,229,3.0,3.0,71,0.00,,,0.00,Wunderground v.1.15,2013-06-16 03:50:00,
2013-06-15 23:55:00,62.4,52.9,29.93,WSW,252,3.0,9.0,71,0.00,,,0.00,Wunderground v.1.15,2013-06-16 03:55:00,